STARLINK-33989, 63929

Orbit data source: Space-Track

STARLINK-33989, 63929 is a payload satellite owned by SpaceX/Seattle (US) in LEO that was launched on Tue, 13 May 2025 UTC via an FALCON 9 launch vehicle from the Air Force Western Test Range (AFWTR). Payload-class satellites include a variety of spacecraft equipped with specific instruments for various scientific and technological missions. These include communications satellites like Starlink; space stations such as the ISS; scientific satellites like the Hubble; Earth observation satellites from companies like Planet Labs, Umbra, and HawkEye 360; GPS; miniature CubeSats for education and research; and military/defense satellites.

Loading next visibility...
Identifier
63929, 2025-098D
Orbit
LEO
Country
Flag of USUS
Related business
Manufacturer
SpaceX/Seattle
Mission
Operational Commercial Communications
Bus & Motor
STARLINK V2MO, Unknown motor
Mass
575 kg wet, ~530 kg dry
Launch date (UTC)
2025-05-13 (7 months ago)
Launch vehicle
FALCON 9
Launch site
Air Force Western Test Range (AFWTR)
Object type
Payload
Rocket body
Debris
Shape & HBR
Box + 2 Pan, 17.7 m
Radar Cross Section
36.964 m², Large (>1 m²)

Expand to show TLE details & history
Last TLE update: 20 hours ago

TLE from 20 hours ago
0 STARLINK-33989
1 63929U 25098D   25348.78688297  .00004567  00000-0  39033-3 0  9993
2 63929  70.0006 128.5766 0003195 272.3881  87.6913 14.98323864 33859
Epoch: 2025-12-14T18:53Z
TLE epoch observation values (Epoch: 2025-12-14T18:53:06.688Z)
Latitude
0.00004°
Longitude
121.60395°
Altitude
574.41 km
Speed
7.574 km/s
True Right ascension
08h 34m 18s
True Declination
0° 00' 00"
Sunlit
Object was in full shadow at epoch
Visualization orbit readout
Latitude
Unknown
Longitude
Unknown
Altitude
Unknown
Speed
Unknown
Apparent Right ascension
Unknown
Apparent Declination
Unknown
Sunlit
N/A
Visualization observer readout
Local Sidereal Time
13:22:41
Azimuth
Unknown
Elevation
Unknown
Doppler factor
Unknown
Orbital elements
Apogee altitude
572.243 km
Perigee altitude
567.803 km
Semi-major axis
6,948.16 km
Eccentricity
0.00032
Inclination
70.0006°
RAAN
128.5766°
Arg. of periapsis
272.3881°
True anomaly
87.72788°
Mean anomaly
87.6913°
Eccentric anomaly
87.70959°
Mean motion
3.74747 °/min
Orbital period
96.06 mins
BSTAR
0.00039033
Loading maneuver chart data...
Computing Atmospheric mass density...
Loading historical data...
Loading historical data...
Loading historical data...
Loading historical data...
Loading historical data...
Loading historical data...
Loading historical data...

Documentation

Showing up to 5 results
|